This is the latest recevied weather packets stored in our database for station/object n7wwk-1. If no packets are shown the sender has not sent any weather packets the latest 10 day(s).
| Time | Temp. | Humidity | Pressure | Rain* | Wind** | Luminosity | Snow |
|---|---|---|---|---|---|---|---|
| 1777928405 | 26.11° C | 52% | 1013.3 hPa | 0 mm | - | 455 W/m² | - |
| 1777924805 | 26.67° C | 48% | 1013.8 hPa | 0 mm | - | 659 W/m² | - |
| 1777923605 | 26.11° C | 51% | 1014.3 hPa | 0 mm | - | 739 W/m² | - |
| 1777920737 | 26.67° C | 45% | 1014.8 hPa | 0 mm | - | 764 W/m² | - |
| 1777916405 | 26.67° C | 42% | 1015.4 hPa | 0 mm | - | 794 W/m² | - |
| 1777914605 | 25.56° C | 43% | 1015.7 hPa | 0 mm | - | 794 W/m² | - |
| 1777914006 | 26.67° C | 43% | 1015.8 hPa | 0 mm | - | 788 W/m² | - |
| 1777909805 | 25.56° C | 46% | 1016 hPa | 0 mm | - | 716 W/m² | - |
| 1777907405 | 24.44° C | 47% | 1016.2 hPa | 0 mm | - | 637 W/m² | - |
| 1777905605 | 24.44° C | 45% | 1016.4 hPa | 0 mm | - | 560 W/m² | - |
| 1777903339 | 23.33° C | 50% | 1016.1 hPa | 0 mm | - | 458 W/m² | - |
| 1777902605 | 23.33° C | 53% | 1016.5 hPa | 0 mm | - | 422 W/m² | - |
| 1777900805 | 22.78° C | 62% | 1016.2 hPa | 0 mm | - | 329 W/m² | - |
| 1777899005 | 21.67° C | 68% | 1016.2 hPa | 0 mm | - | 239 W/m² | - |
| 1777898405 | 21.67° C | 72% | 1016.1 hPa | 0 mm | - | 209 W/m² | - |
| 1777897206 | 20.56° C | 79% | 1015.9 hPa | 0 mm | - | 106 W/m² | - |
| 1777896135 | 18.89° C | 86% | 1015.9 hPa | 0 mm | - | 72 W/m² | - |
| 1777892406 | 13.89° C | 98% | 1015.2 hPa | 0 mm | - | 10 W/m² | - |
| 1777891806 | 13.89° C | 98% | 1015.3 hPa | 0 mm | - | 5 W/m² | - |
| 1777885805 | 14.44° C | 97% | 1015 hPa | 0 mm | - | 0 W/m² | - |
| 1777881606 | 15.56° C | 95% | 1015.2 hPa | 0 mm | - | 0 W/m² | - |
| 1777880405 | 15.56° C | 94% | 1015.1 hPa | 0 mm | - | 0 W/m² | - |
| 1777879805 | 16.11° C | 94% | 1015 hPa | 0 mm | - | 0 W/m² | - |
| 1777878605 | 16.11° C | 93% | 1014.8 hPa | 0 mm | - | 0 W/m² | - |
| 1777876205 | 16.67° C | 89% | 1015.5 hPa | 0 mm | - | 0 W/m² | - |
* Rain latest hour (hover to see other rain measurements)
** Current wind speed in m/s (hover to see current wind gust speed)